Location: Mapua
(41.2500°S, 173.1000°E)
Time: 15:13:52
(UTC+12:00)

N. Korean satellite - Visible Passes

Search period start: 16 July 2018 00:00
Search period end: 26 July 2018 00:00
Orbit: 459 x 511 km, 97.2° (Epoch: 15 July)

Date Brightness Start Highest point End Pass type
(mag) Time Alt. Az. Time Alt. Az. Time Alt. Az.
16 Jul 6.6 06:26:39 10° N 06:30:03 50° W 06:32:46 15° SSW visible
16 Jul 8.5 17:54:51 10° ESE 17:56:36 13° E 17:58:22 10° ENE visible
16 Jul 7.9 19:28:37 25° SSW 19:30:15 39° WSW 19:33:42 10° NW visible
17 Jul 6.6 06:02:25 10° NNE 06:05:53 73° ESE 06:08:26 18° S visible
17 Jul 6.6 19:04:04 25° S 19:06:09 83° WSW 19:09:51 10° NNW visible
18 Jul 8.1 05:38:38 10° NE 05:41:48 33° ESE 05:44:07 16° SSE visible
18 Jul 8.4 07:13:40 10° WNW 07:15:25 13° W 07:17:11 10° WSW visible
18 Jul 6.9 18:39:32 18° SSE 18:42:00 46° E 18:45:34 10° N visible
18 Jul 9.7 20:13:54 11° SW 20:15:03 12° WSW 20:16:32 10° W visible
19 Jul 9.3 05:15:25 10° ENE 05:17:48 17° ESE 05:19:49 12° SSE visible
19 Jul 7.5 06:48:07 10° NNW 06:51:05 26° W 06:54:06 10° SW visible
19 Jul 7.8 18:14:59 11° SE 18:17:44 23° E 18:20:45 10° NNE visible
19 Jul 9.0 19:49:21 16° SSW 19:51:06 22° WSW 19:54:01 10° WNW visible
20 Jul 6.5 06:23:25 10° N 06:26:50 55° W 06:29:53 13° SSW visible
20 Jul 8.6 17:51:53 10° ESE 17:53:24 12° E 17:54:56 10° ENE visible
20 Jul 7.8 19:24:48 19° S 19:27:05 43° WSW 19:30:37 10° NW visible
21 Jul 6.8 05:59:13 10° NNE 06:02:40 66° ESE 06:05:36 14° S visible
21 Jul 6.5 19:00:14 18° SSE 19:02:58 90° SSW 19:06:43 10° NNW visible
22 Jul 8.3 05:35:29 10° NE 05:38:35 31° ESE 05:41:19 13° SSE visible
22 Jul 8.3 07:10:10 10° NW 07:12:10 14° W 07:14:12 10° WSW visible
22 Jul 7.0 18:35:40 13° SSE 18:38:48 42° E 18:42:22 10° N visible
22 Jul 9.7 20:10:04 10° SW 20:11:53 13° WSW 20:13:41 10° W visible
23 Jul 9.4 05:12:21 10° ENE 05:14:36 16° ESE 05:16:53 10° SSE visible
23 Jul 7.4 06:44:47 10° NNW 06:47:51 28° W 06:50:58 10° SW visible
23 Jul 7.9 18:11:35 10° SE 18:14:32 22° E 18:17:28 10° NNE visible
23 Jul 8.9 19:45:27 13° SSW 19:47:56 24° WSW 19:50:58 10° NW visible
24 Jul 6.5 06:20:09 10° N 06:23:35 61° W 06:27:08 10° SSW visible
24 Jul 7.6 19:20:51 14° S 19:23:53 47° WSW 19:27:30 10° NNW visible
25 Jul 7.0 05:55:59 10° NNE 05:59:26 60° ESE 06:02:54 10° S visible
25 Jul 6.5 18:56:15 12° SSE 18:59:46 83° E 19:03:32 10° N visible
